OBJECT AC, 62403

Orbit data source: Space-Track

You're viewing an Uncataloged Satellite

Recently launched and/or uncataloged satellites may have evolving metadata. Metadata may include but not limited to: Owner, Maufacturer, Bus, Motor, and Mission.

OBJECT AC, 62403 is a satellite in LEO that was launched on Sat, 21 Dec 2024 UTC via an FALCON 9 launch vehicle from the Air Force Western Test Range (AFWTR). Unknown objects in Earth's orbit typically refer to objects detected orbiting the Earth but have not yet been identified or cataloged. These objects could be anything from previously untracked satellites, spent rocket stages, debris from satellite collisions, or even natural meteoroids temporarily captured by Earth's gravity.

Loading next visibility...
Identifier
62403, 2024-247AC
Orbit
LEO
Country
Flag of TBDTBD
Related business
None
Manufacturer
ONDO Space
Mission
Operational Commercial Communications
Bus & Motor
CUBESAT 0.5U, Unknown motor
Mass
0.25 kg wet, 0.25 kg dry
Launch date (UTC)
2024-12-21 (8 months ago)
Launch vehicle
FALCON 9
Launch site
Air Force Western Test Range (AFWTR)
Object type
Unknown
Shape & HBR
Box, 0.0 m
Radar Cross Section
0.004 m², Small (<0.1 m²)

Expand to show TLE details & history
Last TLE update: 2 days ago

TLE from 2 days ago
0 OBJECT AC
1 62403U 24247AC  25239.98330222  .00018913  00000-0  72641-3 0  9999
2 62403  45.0066  89.2212 0004139 185.8537 174.2298 15.26218516 38175
Epoch: 2025-08-27T23:35Z
TLE epoch observation values (Epoch: 2025-08-27T23:35:57.311Z)
Latitude
-0.00002°
Longitude
118.77955°
Altitude
489.955 km
Speed
7.62 km/s
True Right ascension
05h 56m 53s
True Declination
0° 00' 00"
Sunlit
Object was in daylight at epoch
Visualization orbit readout
Latitude
Unknown
Longitude
Unknown
Altitude
Unknown
Speed
Unknown
Apparent Right ascension
Unknown
Apparent Declination
Unknown
Sunlit
N/A
Visualization observer readout
Local Sidereal Time
16:59:56
Azimuth
Unknown
Elevation
Unknown
Doppler factor
Unknown
Orbital elements
Apogee altitude
491.578 km
Perigee altitude
485.894 km
Semi-major axis
6,866.873 km
Eccentricity
0.00041
Inclination
45.0066°
RAAN
89.2212°
Arg. of periapsis
185.8537°
True anomaly
174.23457°
Mean anomaly
174.2298°
Eccentric anomaly
174.23218°
Mean motion
3.81421 °/min
Orbital period
94.38 mins
BSTAR
0.00072641
Loading maneuver chart data...
Computing Atmospheric mass density...
Loading historical data...
Loading historical data...
Loading historical data...
Loading historical data...
Loading historical data...
Loading historical data...
Loading historical data...

Documentation

Showing up to 5 results
|